Wind_Speed
12 11 10 9 7 6 9 11 10 7 7 9 8 8 8 8 5 4 6 5 4 5 5 5 6 6 7 8 8 8 8 9 10 11 11 11 11 11 12 13 14 14 15 15 14 14 13 11 10
11 9 9 8 6 7 9 9 7 7 6 6 6 6 7 7 5 4 5 4 4 4 5 5 5 5 6 7 7 7 8 8 9 10 10 11 10 11 11 12 13 14 14 14 14 14 13 12 11
9 7 7 6 6 8 8 8 6 5 5 4 4 4 5 5 4 4 4 5 5 5 5 6 6 7 7 8 8 8 8 8 8 9 9 10 10 11 11 12 12 13 14 14 13 13 13 13 12
9 6 4 4 5 8 7 7 6 5 4 3 3 2 2 2 3 4 4 5 6 7 7 7 8 9 9 10 10 10 10 9 9 9 10 10 11 11 12 13 14 14 15 14 13 13 13 13 12
10 6 4 5 3 7 7 7 7 8 6 5 5 5 4 3 5 6 6 6 7 8 9 9 10 11 11 12 12 12 12 11 11 11 11 11 12 13 13 14 15 16 16 14 14 13 13 12 12
11 8 7 7 4 3 3 6 8 9 8 7 5 6 6 5 6 8 9 9 9 10 11 11 12 12 13 13 13 14 14 13 13 13 13 13 14 14 14 15 16 16 15 14 14 14 13 12 12
13 10 9 8 5 3 1 5 10 11 10 9 7 7 8 6 5 7 10 11 10 10 11 11 11 12 12 12 13 14 14 15 15 15 15 15 15 15 15 15 15 15 15 14 14 14 14 13 13
15 13 12 11 6 2 1 5 8 10 11 10 9 10 10 9 6 5 8 11 11 11 11 12 11 11 12 12 13 14 15 15 16 16 16 16 15 16 16 16 16 16 15 15 14 14 15 15 15
18 17 15 14 9 4 1 4 8 10 12 11 11 12 11 12 10 6 7 10 11 11 11 12 12 12 12 13 14 14 15 15 16 17 17 17 17 17 17 17 17 17 17 16 16 16 16 16 17
19 20 18 17 13 9 5 5 8 13 14 13 12 12 12 13 13 10 10 11 12 13 13 13 13 13 14 15 15 16 16 17 17 17 18 18 19 19 19 19 18 18 18 18 18 18 18 18 19
20 21 22 20 15 11 9 9 12 15 19 19 18 16 15 16 18 17 16 15 16 16 17 17 17 17 17 18 19 19 19 19 19 19 19 20 21 21 21 21 21 21 21 21 21 21 20 21 21
22 24 25 22 18 14 11 12 15 18 22 24 24 23 22 21 21 23 23 21 21 20 20 21 22 22 21 22 23 23 22 22 22 22 22 23 23 23 24 24 25 24 24 24 24 24 24 24 24
24 25 25 23 20 17 15 15 18 20 24 27 29 28 28 27 26 26 26 26 26 25 23 24 26 27 26 25 26 27 26 26 26 26 26 26 27 27 27 27 28 28 28 28 28 28 27 27 27
28 27 25 22 21 20 21 21 22 22 26 30 32 33 33 32 29 28 28 28 29 29 29 28 28 30 31 30 30 30 29 29 29 29 30 30 30 31 32 31 32 32 32 31 31 31 30 30 29
31 28 26 23 23 24 26 27 26 26 28 31 33 35 36 36 34 33 32 32 33 33 34 34 34 34 34 35 35 34 33 32 32 32 32 33 33 34 35 35 35 35 35 34 34 33 33 32 31
31 30 28 27 27 27 29 29 27 26 27 28 31 35 37 37 36 36 36 37 36 35 36 38 37 35 35 36 37 37 36 36 35 34 34 35 35 36 36 37 38 38 37 37 36 36 36 35 34
31 30 29 28 28 29 30 30 27 26 25 26 29 32 34 36 37 37 38 38 37 36 36 35 35 35 36 37 37 36 36 36 36 36 37 37 36 37 37 38 39 40 39 39 39 38 38 37 36
28 27 25 23 24 26 27 27 25 23 24 26 29 31 33 34 35 36 37 37 37 37 36 34 35 36 36 36 35 36 36 36 37 38 38 38 38 38 38 38 40 41 41 41 39 39 39 36 36
23 22 20 19 21 22 23 23 24 24 27 29 31 32 33 34 33 34 35 36 37 37 37 38 38 38 37 37 37 37 36 37 38 39 39 39 40 40 40 40 41 42 42 42 40 39 38 36 37
17 19 21 23 24 24 25 26 27 28 30 32 32 33 33 31 31 32 32 33 36 38 39 40 40 39 39 40 39 38 38 38 38 39 40 40 41 41 41 41 42 42 42 42 40 39 38 37 37
16 19 22 24 25 27 29 29 29 30 32 32 33 32 30 28 28 30 31 33 35 37 39 39 38 38 38 39 40 40 39 39 38 38 39 39 40 41 41 41 42 42 42 41 41 41 40 39 38
17 19 20 22 24 28 31 32 30 30 30 30 30 28 27 26 28 29 31 32 33 34 36 37 37 37 38 38 39 39 39 39 38 38 38 39 39 40 40 41 41 43 44 43 42 41 41 41 41
17 17 18 18 19 22 26 28 24 24 24 25 25 25 25 26 27 28 29 30 32 34 35 36 36 37 38 38 39 39 39 38 38 37 37 37 37 38 39 40 41 42 43 43 42 43 43 43 43
13 13 14 15 15 17 19 20 17 17 17 18 19 21 23 24 25 27 29 31 33 34 35 36 37 38 39 40 41 41 41 41 40 39 37 37 37 38 39 40 40 41 43 43 44 44 44 44 43
9 9 9 10 12 13 15 17 15 15 16 16 17 18 22 24 26 28 28 29 31 33 34 35 36 38 39 40 41 42 43 43 43 42 41 40 40 40 40 41 41 42 43 44 44 44 44 43 42
7 8 7 7 7 8 13 15 15 16 18 19 20 22 24 26 26 27 27 28 31 33 34 36 37 38 39 40 40 41 42 43 44 44 44 44 43 43 43 43 43 44 44 44 44 44 44 43 42
6 6 7 7 6 7 10 15 17 19 22 23 24 25 25 26 26 27 29 30 32 34 36 37 39 39 40 40 40 41 42 43 43 44 45 45 45 45 44 44 44 44 44 44 43 43 43 42 41
8 7 7 8 10 9 8 12 18 21 23 25 26 27 28 29 30 31 32 33 34 35 37 39 40 40 40 40 41 40 40 40 41 42 43 44 44 44 44 44 43 43 42 42 42 41 41 40 39
9 9 10 11 13 15 15 13 18 21 23 25 27 29 31 33 34 34 35 36 37 37 39 40 41 41 41 41 40 39 39 38 38 39 39 40 41 41 41 40 40 40 39 38 37 36 36 35 35
11 12 13 15 16 19 20 19 21 24 26 28 30 32 34 36 37 38 38 39 39 39 40 41 41 41 40 40 40 39 38 37 36 36 37 37 36 36 36 36 35 35 34 33 32 32 31 31 31
Wind_Direction
126 121 116 108 102 94 78 75 70 64 53 55 57 58 60 65 65 56 68 64 54 45 37 39 39 37 32 26 22 22 21 18 15 11 9 10 10 12 13 13 12 10 10 12 13 14 15 15 15
142 130 118 106 98 93 76 67 62 69 65 65 67 67 62 56 49 33 35 27 17 19 11 9 10 12 10 7 5 5 7 7 5 2 1 1 1 2 4 5 5 4 4 4 6 8 9 10 10
162 141 130 119 100 87 72 59 40 49 57 55 70 75 68 54 30 13 12 358 349 345 343 344 343 343 342 341 341 341 342 344 346 347 347 347 349 349 350 352 352 354 354 354 355 359 3 5 6
185 167 161 157 107 83 65 42 22 13 19 11 7 30 50 31 351 340 343 337 335 332 328 325 323 323 323 323 323 322 322 323 326 328 330 332 333 334 335 337 338 339 340 342 344 347 352 358 3
199 192 214 232 129 89 47 13 354 344 341 342 337 325 316 316 313 314 311 313 320 319 317 312 310 310 311 312 311 312 311 312 313 316 317 319 322 324 324 326 327 328 328 328 331 333 338 344 351
198 204 234 238 170 123 50 349 333 324 329 325 316 302 299 301 301 303 300 302 307 306 306 305 303 303 304 306 306 307 305 303 304 306 308 311 314 317 320 321 322 323 323 322 321 322 323 327 332
194 205 225 209 171 153 43 323 315 316 315 307 300 293 291 294 300 305 301 299 300 299 299 299 299 300 301 303 304 304 303 301 300 301 302 305 309 312 315 319 322 324 324 322 319 317 315 315 317
190 199 214 207 181 143 55 307 306 305 302 297 293 295 298 299 304 308 302 302 302 300 296 295 296 299 300 301 302 302 300 299 299 300 300 302 305 307 309 313 316 318 321 320 318 315 312 310 309
195 200 213 220 212 196 190 284 294 297 297 297 293 294 300 302 302 304 303 303 304 301 297 295 295 296 296 299 301 302 300 300 299 300 299 300 300 302 304 306 309 312 313 313 313 311 308 306 303
202 206 219 228 231 233 227 243 283 296 300 302 298 296 299 303 301 303 305 302 300 299 297 296 294 294 294 294 296 298 297 297 298 298 297 297 297 297 298 300 303 304 306 307 307 307 305 302 300
207 210 224 235 243 254 253 253 275 291 298 300 300 301 299 300 300 300 299 296 295 296 297 296 293 290 290 291 291 292 293 294 294 295 294 294 295 294 294 295 295 297 299 300 301 303 303 300 297
214 214 226 237 246 256 262 264 269 283 292 295 297 297 295 293 296 296 296 294 293 291 291 291 290 288 287 288 289 289 290 290 291 291 291 291 291 291 291 292 292 293 294 294 295 297 298 297 296
226 225 233 242 253 263 270 269 269 278 286 289 291 292 292 292 292 292 292 293 291 288 286 286 286 285 284 284 285 286 287 287 288 287 287 287 287 287 287 287 288 288 288 289 290 291 292 293 294
236 236 241 249 257 262 265 264 267 273 277 282 286 288 289 290 291 291 290 293 292 290 290 285 284 282 281 280 279 280 281 282 284 284 284 284 284 284 284 284 284 284 284 284 285 287 288 290 290
241 243 245 248 252 256 261 264 268 270 273 278 282 285 288 291 293 293 294 295 295 293 292 288 287 281 280 277 276 274 274 275 277 278 279 279 279 280 281 281 281 280 280 281 282 283 283 284 284
241 246 248 249 251 253 259 264 266 268 271 277 282 285 288 291 294 296 296 297 297 295 292 289 284 281 279 277 275 276 275 275 276 275 275 274 274 275 275 276 277 278 279 279 280 281 281 280 280
240 244 247 249 251 253 257 262 263 268 274 280 284 286 288 290 293 296 298 299 300 298 295 291 288 283 283 280 277 278 278 278 277 276 276 275 275 274 274 274 275 277 278 278 277 279 281 280 279
238 241 243 241 245 252 257 262 267 270 274 278 281 282 282 285 290 295 299 301 302 302 299 294 293 289 285 281 281 279 278 280 279 278 278 279 279 277 276 275 276 279 280 279 277 278 281 280 280
231 235 233 230 235 240 246 252 257 262 268 274 276 276 278 283 288 294 298 300 302 302 300 300 299 295 292 289 286 283 281 280 278 278 278 277 277 277 278 278 279 280 282 281 279 281 281 280 281
220 225 224 225 230 234 237 244 252 259 267 272 274 274 276 282 287 294 297 299 300 299 299 301 300 297 294 292 289 287 284 280 279 278 277 277 277 277 278 279 281 281 281 283 284 285 284 283 282
224 229 229 229 234 243 250 253 259 264 268 271 273 274 278 283 289 295 298 298 299 298 299 299 298 297 295 294 292 290 287 284 281 280 279 278 278 277 278 278 279 280 282 284 284 284 284 284 283
235 242 243 242 240 243 252 258 261 265 268 270 272 274 279 284 290 294 296 298 299 299 298 297 296 296 295 294 293 292 290 288 285 283 280 279 278 278 279 279 280 281 283 284 285 282 283 282 283
251 255 257 254 248 246 250 259 266 270 272 273 273 276 281 285 291 295 298 301 301 299 298 297 296 295 294 293 293 291 291 289 288 286 284 281 280 280 280 281 282 282 283 283 283 282 282 282 281
260 261 261 260 257 253 254 260 267 274 280 281 279 280 284 290 294 299 301 302 302 303 301 300 298 296 294 293 291 290 289 287 286 285 284 283 282 282 282 282 283 283 283 283 283 282 281 280 278
270 269 263 260 259 258 261 267 273 279 282 284 287 288 291 295 299 302 303 304 307 308 307 306 304 302 299 295 292 290 288 286 285 284 282 282 282 282 283 283 284 284 284 284 283 281 281 278 276
294 286 281 271 260 257 266 273 281 284 285 289 294 296 299 303 306 309 311 313 315 315 315 313 311 309 307 303 299 294 290 288 285 283 282 281 281 282 282 283 284 284 285 284 282 280 279 277 276
294 294 293 295 288 282 278 286 289 290 293 298 303 305 308 312 315 316 317 319 320 321 321 320 319 316 313 309 304 300 296 291 288 285 283 282 282 282 283 283 284 284 284 283 281 279 277 276 273
274 280 289 298 302 297 289 299 296 295 298 300 303 308 313 316 318 319 318 318 319 319 320 320 320 319 317 314 310 305 301 296 292 288 285 284 283 283 284 284 284 283 283 282 280 277 274 273 270
273 280 289 298 306 308 305 306 298 296 297 300 304 309 313 314 315 315 315 315 316 316 316 315 316 317 317 317 315 311 306 302 297 293 289 287 285 284 284 284 283 283 282 280 278 274 271 268 265
293 298 296 296 299 300 300 301 292 294 299 304 309 312 313 313 312 311 310 310 310 310 311 310 311 313 314 315 315 314 309 305 301 296 293 290 288 286 285 285 284 283 281 279 275 269 266 263 260
Height
5938 5938 5937 5938 5938 5937 5936 5936 5936 5937 5938 5938 5937 5937 5937 5938 5938 5939 5937 5935 5935 5935 5934 5934 5933 5933 5932 5931 5930 5929 5929 5928 5927 5926 5925 5924 5923 5922 5920 5918 5917 5915 5913 5912 5910 5908 5906 5905 5903
5938 5938 5939 5939 5938 5937 5937 5936 5937 5938 5938 5938 5939 5939 5938 5938 5938 5937 5937 5936 5936 5936 5935 5935 5934 5934 5933 5932 5931 5930 5929 5928 5927 5926 5925 5924 5923 5922 5920 5919 5917 5916 5914 5912 5910 5908 5907 5905 5903
5938 5938 5939 5939 5938 5937 5937 5937 5937 5938 5939 5939 5940 5940 5940 5939 5938 5938 5938 5937 5937 5936 5936 5935 5935 5934 5934 5933 5932 5931 5930 5929 5927 5926 5925 5924 5923 5922 5920 5919 5918 5916 5915 5913 5911 5909 5907 5906 5904
5939 5939 5940 5940 5937 5937 5936 5937 5937 5938 5939 5939 5940 5940 5940 5940 5938 5938 5938 5937 5937 5937 5936 5936 5935 5934 5934 5933 5932 5931 5930 5929 5927 5926 5925 5924 5923 5921 5920 5919 5917 5916 5914 5913 5911 5910 5908 5906 5904
5939 5940 5941 5939 5937 5936 5936 5936 5937 5938 5939 5939 5939 5939 5940 5940 5938 5937 5937 5937 5936 5936 5936 5935 5934 5934 5933 5932 5932 5931 5929 5928 5927 5925 5924 5923 5922 5921 5919 5918 5916 5915 5914 5912 5911 5909 5908 5906 5905
5939 5939 5939 5938 5936 5936 5936 5935 5936 5937 5938 5938 5939 5938 5939 5940 5938 5936 5935 5936 5936 5935 5934 5934 5933 5933 5932 5931 5930 5929 5928 5927 5926 5924 5923 5922 5921 5919 5918 5917 5915 5914 5912 5911 5910 5908 5907 5906 5905
5938 5938 5937 5936 5935 5936 5936 5935 5935 5935 5936 5937 5937 5937 5937 5939 5939 5937 5934 5934 5935 5934 5933 5932 5932 5931 5930 5929 5928 5927 5926 5925 5924 5923 5921 5920 5919 5917 5916 5915 5913 5912 5910 5909 5908 5907 5906 5904 5903
5935 5936 5934 5933 5933 5934 5935 5935 5935 5935 5935 5935 5935 5935 5935 5936 5938 5938 5934 5932 5933 5933 5932 5931 5930 5929 5928 5927 5926 5925 5924 5923 5922 5920 5919 5918 5916 5915 5914 5912 5911 5910 5908 5907 5905 5904 5903 5902 5901
5933 5934 5931 5931 5931 5932 5933 5934 5934 5933 5933 5934 5934 5934 5934 5933 5935 5937 5936 5933 5932 5931 5930 5929 5928 5927 5926 5925 5923 5922 5921 5920 5919 5918 5916 5915 5914 5912 5911 5909 5908 5907 5905 5904 5903 5901 5900 5899 5898
5931 5931 5930 5929 5930 5931 5932 5932 5932 5931 5931 5932 5933 5932 5932 5931 5931 5933 5934 5933 5931 5929 5928 5926 5925 5924 5923 5921 5920 5919 5918 5917 5915 5914 5913 5912 5910 5909 5907 5906 5904 5903 5902 5900 5899 5898 5896 5895 5895
5928 5929 5928 5928 5928 5930 5931 5931 5930 5929 5928 5929 5930 5930 5930 5929 5928 5929 5930 5930 5929 5927 5925 5923 5922 5921 5920 5918 5917 5915 5914 5913 5911 5910 5909 5907 5906 5904 5903 5902 5900 5899 5898 5896 5895 5894 5892 5891 5890
5924 5925 5925 5926 5927 5929 5930 5930 5929 5927 5926 5925 5926 5926 5926 5927 5926 5924 5925 5925 5925 5924 5922 5920 5918 5916 5915 5914 5912 5911 5909 5908 5907 5906 5904 5903 5901 5900 5898 5896 5895 5894 5893 5891 5890 5889 5888 5886 5885
5921 5922 5923 5925 5927 5927 5928 5927 5927 5926 5923 5921 5921 5921 5922 5922 5922 5921 5919 5919 5919 5919 5919 5917 5914 5912 5910 5909 5907 5905 5904 5903 5901 5900 5899 5897 5895 5894 5893 5891 5889 5888 5887 5886 5884 5883 5882 5881 5879
5917 5919 5921 5924 5925 5924 5924 5924 5924 5923 5920 5917 5916 5916 5916 5916 5917 5916 5915 5914 5914 5913 5912 5911 5908 5906 5903 5902 5900 5898 5897 5896 5894 5893 5892 5890 5888 5887 5885 5884 5883 5881 5880 5879 5878 5876 5875 5874 5873
5912 5916 5919 5920 5920 5919 5918 5919 5919 5918 5916 5913 5912 5910 5910 5910 5910 5910 5909 5908 5907 5905 5903 5901 5899 5897 5894 5892 5891 5890 5889 5888 5887 5886 5885 5883 5881 5879 5877 5876 5874 5873 5872 5871 5870 5868 5867 5866 5865
5908 5911 5913 5914 5913 5913 5913 5913 5913 5912 5911 5909 5907 5905 5904 5903 5903 5902 5901 5900 5898 5896 5894 5891 5888 5886 5882 5881 5879 5878 5879 5879 5878 5877 5876 5875 5873 5871 5869 5867 5865 5863 5862 5861 5860 5859 5858 5857 5856
5902 5903 5905 5907 5907 5907 5907 5907 5907 5906 5906 5905 5903 5901 5898 5897 5896 5895 5893 5892 5890 5888 5886 5881 5879 5877 5874 5872 5869 5867 5868 5868 5867 5866 5865 5864 5863 5861 5859 5857 5855 5852 5851 5850 5849 5848 5847 5846 5846
5895 5897 5899 5901 5901 5902 5901 5901 5901 5902 5902 5901 5899 5897 5895 5893 5892 5890 5888 5885 5882 5879 5877 5873 5871 5868 5866 5864 5860 5859 5859 5859 5858 5857 5855 5853 5852 5851 5849 5848 5845 5842 5840 5839 5838 5837 5836 5836 5835
5890 5892 5893 5894 5895 5896 5896 5896 5896 5896 5895 5895 5893 5892 5890 5890 5889 5887 5884 5880 5876 5873 5869 5864 5862 5860 5856 5854 5853 5852 5851 5850 5848 5847 5846 5844 5842 5840 5839 5837 5835 5833 5831 5828 5827 5827 5827 5826 5825
5885 5887 5888 5889 5889 5890 5890 5890 5891 5890 5889 5888 5887 5885 5885 5885 5884 5882 5879 5875 5871 5867 5863 5859 5855 5851 5848 5845 5844 5843 5841 5840 5839 5837 5836 5834 5832 5830 5829 5827 5825 5823 5821 5819 5818 5817 5817 5816 5815
5881 5882 5883 5884 5885 5885 5885 5886 5886 5885 5883 5881 5880 5880 5880 5879 5878 5876 5874 5870 5866 5861 5857 5852 5848 5843 5840 5836 5834 5832 5831 5830 5828 5827 5826 5824 5822 5820 5818 5817 5815 5813 5810 5809 5808 5807 5807 5807 5806
5877 5878 5879 5880 5881 5881 5881 5880 5881 5879 5877 5876 5875 5875 5874 5873 5872 5869 5867 5863 5859 5855 5850 5846 5841 5837 5833 5829 5826 5823 5821 5819 5818 5817 5815 5814 5812 5810 5808 5807 5805 5804 5802 5801 5800 5798 5798 5797 5796
5874 5874 5874 5875 5875 5876 5875 5874 5875 5873 5871 5870 5870 5869 5868 5867 5865 5862 5859 5856 5852 5847 5843 5838 5834 5829 5825 5821 5818 5815 5812 5810 5808 5806 5805 5804 5802 5800 5799 5797 5795 5794 5792 5791 5790 5789 5788 5787 5786
5870 5870 5870 5869 5870 5870 5869 5869 5869 5867 5865 5864 5863 5863 5862 5860 5858 5855 5852 5849 5844 5839 5834 5829 5825 5821 5817 5813 5809 5806 5803 5800 5798 5796 5795 5793 5792 5790 5788 5787 5785 5784 5782 5780 5779 5778 5777 5776 5775
5867 5867 5867 5866 5865 5865 5864 5863 5863 5861 5860 5858 5857 5856 5855 5853 5850 5848 5845 5840 5835 5830 5825 5820 5816 5812 5808 5804 5800 5796 5793 5790 5788 5786 5784 5782 5781 5780 5778 5776 5775 5773 5771 5769 5768 5767 5765 5764 5764
5864 5863 5864 5863 5862 5861 5859 5857 5857 5855 5853 5852 5851 5849 5847 5844 5841 5838 5835 5831 5826 5821 5816 5811 5807 5802 5798 5793 5789 5785 5782 5779 5776 5774 5772 5770 5769 5768 5766 5765 5763 5761 5760 5758 5756 5755 5754 5753 5753
5862 5860 5860 5860 5858 5858 5856 5853 5852 5849 5847 5845 5843 5840 5838 5835 5833 5830 5826 5822 5818 5813 5808 5803 5798 5793 5788 5784 5779 5775 5771 5767 5764 5761 5759 5758 5756 5755 5754 5753 5751 5749 5747 5745 5744 5743 5742 5742 5742
5860 5859 5858 5856 5855 5854 5853 5850 5847 5844 5841 5839 5836 5834 5832 5829 5826 5822 5819 5815 5811 5807 5802 5796 5791 5786 5780 5775 5770 5765 5761 5757 5753 5750 5747 5745 5744 5743 5741 5740 5738 5737 5735 5733 5732 5731 5730 5730 5730
5857 5856 5854 5853 5851 5849 5848 5849 5843 5840 5837 5834 5832 5829 5826 5823 5819 5816 5812 5808 5804 5800 5795 5789 5784 5779 5773 5767 5762 5756 5751 5747 5743 5740 5737 5734 5732 5731 5729 5727 5726 5724 5723 5721 5720 5719 5719 5719 5720
5854 5853 5851 5850 5848 5846 5843 5844 5837 5834 5832 5829 5827 5823 5820 5816 5812 5808 5804 5800 5796 5792 5787 5782 5776 5771 5766 5760 5754 5749 5744 5739 5735 5731 5727 5725 5722 5720 5718 5716 5715 5713 5711 5710 5709 5709 5709 5710 5711